Regional Weather Roundup
Issued by NWS

Home | Current Version | Previous Version | Text Only | Print | Product List | Glossary Off
Versions: 1 2 3 4 5 6 7 8 9 10 11 12 13 14 15 16 17 18 19 20 21 22 23 24 25 26 27 28 29 30 31 32 33 34 35 36 37 38 39 40 41 42 43 44 45 46 47 48 49 50

000
ASUS45 KCYS 050610
RWRWY

WYOMING REGIONAL WEATHER ROUNDUP
NATIONAL WEATHER SERVICE CHEYENNE WY
1200 AM MDT THU MAY 05 2016

NOTE:  "FAIR" INDICATES FEW OR NO CLOUDS BELOW 12,000 FEET
WITH NO SIGNIFICANT WEATHER AND/OR OBSTRUCTIONS TO VISIBILITY.

WYZ001-050700-
YELLOWSTONE NATIONAL PARK

CITY           SKY/WX    TMP DP  RH WIND       PRES   REMARKS
LK YELLOWSTONE   N/A     36  29  75 CALM      30.21F
6HR MIN TEMP:  36; 6HR MAX TEMP:  58;

W YELLOWSTONE  NOT AVBL

$$
WYZ002>013-054>058-071-098>099-050700-
NORTHERN WYOMING

CITY           SKY/WX    TMP DP  RH WIND       PRES   REMARKS
JACKSON        FAIR      46  30  53 NW3       30.13R
CODY           FAIR      59  28  31 CALM      30.01S
GREYBULL       FAIR      65  27  23 SW7       29.94S
6HR MIN TEMP:  63; 6HR MAX TEMP:  82;

WORLAND        FAIR      54  38  54 S7        29.96S
6HR MIN TEMP:  54; 6HR MAX TEMP:  77;

SHERIDAN       FAIR      50  37  61 SW5       29.96F
6HR MIN TEMP:  49; 6HR MAX TEMP:  79;

BUFFALO        FAIR      60  29  30 W9        30.02F
6HR MIN TEMP:  56; 6HR MAX TEMP:  75;

GILLETTE       FAIR      56  43  61 S16       30.00S
6HR MIN TEMP:  49; 6HR MAX TEMP:  77;

HULETT         FAIR      63  39  42 S12G18    30.02F
NEWCASTLE      FAIR      61  34  36 E15       30.06S

$$
WYZ014>020-022>026-101>103-050700-
CENTRAL WYOMING

CITY           SKY/WX    TMP DP  RH WIND       PRES   REMARKS
BIG PINEY      FAIR      45  29  53 NE3       30.15F
6HR MIN TEMP:  44; 6HR MAX TEMP:  70;

PINEDALE       FAIR      43  32  65 CALM      30.18S
DUBOIS         FAIR      46  21  36 W8        30.15S
LANDER         FAIR      63  21  20 SW21      30.03F
6HR MIN TEMP:  55; 6HR MAX TEMP:  74;

RIVERTON       FAIR      57  31  37 SW12      30.05S
6HR MIN TEMP:  54; 6HR MAX TEMP:  76;

CASPER         FAIR      48  36  63 N5        30.07S
6HR MIN TEMP:  42; 6HR MAX TEMP:  76;

DOUGLAS        FAIR      49  40  71 E10       30.08F
6HR MIN TEMP:  49; 6HR MAX TEMP:  74;


$$
WYZ021-027>030-104>119-050700-
SOUTHERN WYOMING

CITY           SKY/WX    TMP DP  RH WIND       PRES   REMARKS
EVANSTON       FAIR      54  25  32 SE7       30.16S
6HR MIN TEMP:  54; 6HR MAX TEMP:  70;

KEMMERER         N/A     50  30  46 N3        30.18S
FORT BRIDGER   CLEAR     54  28  37 S12       30.18S
ROCK SPRINGS   FAIR      54  26  34 S6        30.16S
6HR MIN TEMP:  53; 6HR MAX TEMP:  69;

DIXON          FAIR      48  30  50 CALM      30.21S
RAWLINS        FAIR      44  31  60 CALM      30.17S
6HR MIN TEMP:  42; 6HR MAX TEMP:  70;

SARATOGA       FAIR      43  30  61 S10       30.20F
LARAMIE        FAIR      45  35  68 S12       30.21F
6HR MIN TEMP:  41; 6HR MAX TEMP:  66;

CHEYENNE       FAIR      50  35  56 SW9       30.18S
6HR MIN TEMP:  48; 6HR MAX TEMP:  70;

TORRINGTON     FAIR      55  42  61 SE12      30.08S
6HR MIN TEMP:  54; 6HR MAX TEMP:  75;

PINE BLUFFS    FAIR      48  37  66 S7        30.15S

$$



USA.gov is the U.S. government's official web portal to all federal, state and local government web resources and services.